Location: Unspecified
(54.1780°N, 0.0000°E)
Time: 11:20:39
(UTC+00:00)

Vanguard 2 - Pass Details

Date: 23 June 2019
Orbit: 553 x 2938 km, 32.9° (Epoch: 20 July)

Event Time Altitude Azimuth Distance (km) Brightness Sun altitude
Rises 12:24:17 0° 246° (WSW) 4,204 11.5 59.0°
Reaches altitude 10° 12:28:45 10° 222° (SW) 3,698 11.6 58.8°
Maximum altitude 12:33:13 14° 194° (SSW) 3,817 11.9 58.7°
Drops below altitude 10° 12:38:35 10° 168° (SSE) 4,617 12.1 58.5°
Sets 12:45:42 0° 149° (SSE) 6,148 12.4 58.2°
